Weather History for Plant City, FL

Change the Weather History Date:

Sunday, March 10, 2013

  Actual Average Record
Temperature  
Mean Temperature 68 °F -  
Max Temperature 80 °F 78 °F 90 °F (1967)
Min Temperature 57 °F 53 °F 32 °F (1932)
Cooling Degree Days 4    
Growing Degree Days 18 (Base 50)    
Moisture  
Dew Point 53 °F    
Average Humidity 62    
Maximum Humidity 88    
Minimum Humidity 32    
Precipitation  
Precipitation 0.00 in - - ()
Sea Level Pressure  
Sea Level Pressure 30.15 in    
Wind  
Wind Speed 7 mph (East)    
Max Wind Speed 18 mph    
Max Gust Speed 24 mph    
Visibility 10 miles    
Events      
Averages and records for this station are not official NWS values.
T = Trace of Precipitation, MM = Missing Value Source: NWS Daily Summary

Daily Weather History Graph

Daily Weather History Graph

Search for Another Location

Airport:

Trip Planner

Search our weather history database for the weather conditions in past years. The results will help you decide how hot, cold, wet, or windy it might be!

Date:

Astronomy

Mar. 10, 2013 Rise Set
Actual Time 7:43 AM EDT 7:34 PM EDT
Civil Twilight 7:20 AM EDT 7:57 PM EDT
Nautical Twilight 6:52 AM EDT 8:25 PM EDT
Astronomical Twilight 6:25 AM EDT 8:52 PM EDT
Moon 6:39 AM EDT (3/10) 6:41 PM EDT (3/10)
Length of Visible Light 12h 37m
Length of Day
11h 51m
Waning Crescent, 2% of the Moon is Illuminated
Mar 10
Waning Crescent
Mar 11
New
Mar 19
First Quarter
Mar 27
Full
Apr 3
Last Quarter

Hourly Weather History & Observations

Time (EDT) Temp. Dew Point Humidity Pressure Visibility Wind Dir Wind Speed Gust Speed Precip Events Conditions
12:15 AM 60.8 °F 51.8 °F 72% 30.20 in 10.0 mi East 8.1 mph - N/A   Clear
12:35 AM 60.8 °F 51.8 °F 72% 30.20 in 10.0 mi East 5.8 mph - N/A   Clear
12:55 AM 60.8 °F 51.8 °F 72% 30.19 in 10.0 mi East 5.8 mph - N/A   Clear
1:15 AM 60.8 °F 53.6 °F 77% 30.18 in 10.0 mi ENE 5.8 mph - N/A   Clear
1:35 AM 60.8 °F 53.6 °F 77% 30.18 in 10.0 mi East 4.6 mph - N/A   Clear
1:55 AM 60.8 °F 53.6 °F 77% 30.17 in 10.0 mi ENE 6.9 mph - N/A   Clear
3:15 AM 60.8 °F 53.6 °F 77% 30.15 in 10.0 mi East 6.9 mph - N/A   Clear
3:35 AM 59.0 °F 53.6 °F 82% 30.16 in 10.0 mi ENE 4.6 mph - N/A   Clear
3:55 AM 59.0 °F 53.6 °F 82% 30.16 in 10.0 mi East 3.5 mph - N/A   Clear
4:15 AM 59.0 °F 53.6 °F 82% 30.15 in 10.0 mi East 3.5 mph - N/A   Clear
4:35 AM 59.0 °F 53.6 °F 82% 30.15 in 10.0 mi ENE 4.6 mph - N/A   Clear
4:55 AM 59.0 °F 53.6 °F 82% 30.14 in 10.0 mi East 5.8 mph - N/A   Clear
5:15 AM 59.0 °F 53.6 °F 82% 30.15 in 10.0 mi Calm Calm - N/A   Clear
5:35 AM 59.0 °F 53.6 °F 82% 30.15 in 10.0 mi East 3.5 mph - N/A   Clear
5:55 AM 59.0 °F 53.6 °F 82% 30.16 in 10.0 mi East 3.5 mph - N/A   Clear
6:15 AM 57.2 °F 53.6 °F 88% 30.15 in 10.0 mi East 3.5 mph - N/A   Clear
6:35 AM 57.2 °F 53.6 °F 88% 30.16 in 10.0 mi East 4.6 mph - N/A   Clear
6:55 AM 59.0 °F 53.6 °F 82% 30.16 in 10.0 mi ENE 4.6 mph - N/A   Clear
7:15 AM 59.0 °F 53.6 °F 82% 30.16 in 10.0 mi East 4.6 mph - N/A   Clear
8:35 AM 59.0 °F 53.6 °F 82% 30.18 in 10.0 mi ENE 3.5 mph - N/A   Clear
8:55 AM 60.8 °F 55.4 °F 82% 30.19 in 10.0 mi ENE 4.6 mph - N/A   Clear
9:15 AM 62.6 °F 53.6 °F 72% 30.20 in 10.0 mi ENE 4.6 mph - N/A   Clear
9:35 AM 64.4 °F 53.6 °F 68% 30.20 in 10.0 mi ENE 4.6 mph - N/A   Clear
9:55 AM 66.2 °F 53.6 °F 64% 30.20 in 10.0 mi ENE 5.8 mph - N/A   Clear
10:15 AM 69.8 °F 53.6 °F 56% 30.19 in 10.0 mi East 9.2 mph - N/A   Clear
10:35 AM 71.6 °F 53.6 °F 53% 30.20 in 10.0 mi East 6.9 mph 16.1 mph N/A   Clear
10:55 AM 71.6 °F 51.8 °F 50% 30.19 in 10.0 mi East 12.7 mph 18.4 mph N/A   Clear
11:15 AM 73.4 °F 50.0 °F 44% 30.19 in 10.0 mi ESE 10.4 mph 18.4 mph N/A   Clear
11:35 AM 73.4 °F 50.0 °F 44% 30.17 in 10.0 mi ESE 12.7 mph 19.6 mph N/A   Clear
11:55 AM 75.2 °F 50.0 °F 41% 30.15 in 10.0 mi ESE 17.3 mph 24.2 mph N/A   Clear
12:15 PM 75.2 °F 50.0 °F 41% 30.14 in 10.0 mi East 11.5 mph 20.7 mph N/A   Clear
12:35 PM 77.0 °F 50.0 °F 39% 30.14 in 10.0 mi SE 12.7 mph 21.9 mph N/A   Scattered Clouds
12:55 PM 77.0 °F 50.0 °F 39% 30.14 in 10.0 mi ESE 18.4 mph 23.0 mph N/A   Clear
1:35 PM 78.8 °F 50.0 °F 36% 30.14 in 10.0 mi SE 11.5 mph 17.3 mph N/A   Mostly Cloudy
1:55 PM 78.8 °F 50.0 °F 36% 30.14 in 10.0 mi SE 10.4 mph 18.4 mph N/A   Mostly Cloudy
2:15 PM 77.0 °F 51.8 °F 41% 30.13 in 10.0 mi East 11.5 mph 19.6 mph N/A   Scattered Clouds
2:35 PM 78.8 °F 50.0 °F 36% 30.12 in 10.0 mi SE 11.5 mph 21.9 mph N/A   Mostly Cloudy
3:15 PM 80.6 °F 48.2 °F 32% 30.11 in 10.0 mi East 12.7 mph - N/A   Mostly Cloudy
4:15 PM 80.6 °F 48.2 °F 32% 30.09 in 10.0 mi East 11.5 mph 18.4 mph N/A   Scattered Clouds
4:55 PM 80.6 °F 48.2 °F 32% 30.09 in 10.0 mi East 10.4 mph - N/A   Mostly Cloudy
6:55 PM 77.0 °F 50.0 °F 39% 30.09 in 10.0 mi East 11.5 mph - N/A   Scattered Clouds
7:35 PM 73.4 °F 50.0 °F 44% 30.10 in 10.0 mi East 9.2 mph 16.1 mph N/A   Clear
7:55 PM 73.4 °F 50.0 °F 44% 30.11 in 10.0 mi East 11.5 mph 16.1 mph N/A   Clear
8:15 PM 71.6 °F 51.8 °F 50% 30.12 in 10.0 mi ESE 9.2 mph 17.3 mph N/A   Clear
8:35 PM 71.6 °F 51.8 °F 50% 30.12 in 10.0 mi East 8.1 mph - N/A   Clear
8:55 PM 69.8 °F 53.6 °F 56% 30.12 in 10.0 mi East 9.2 mph - N/A   Clear
9:15 PM 69.8 °F 53.6 °F 56% 30.13 in 10.0 mi East 8.1 mph - N/A   Clear
9:35 PM 68.0 °F 53.6 °F 60% 30.13 in 10.0 mi East 8.1 mph - N/A   Clear
10:15 PM 68.0 °F 53.6 °F 60% 30.14 in 10.0 mi East 9.2 mph - N/A   Clear
10:35 PM 66.2 °F 55.4 °F 68% 30.14 in 10.0 mi East 8.1 mph - N/A   Clear
10:55 PM 66.2 °F 55.4 °F 68% 30.14 in 10.0 mi East 8.1 mph - N/A   Clear
11:15 PM 66.2 °F 55.4 °F 68% 30.14 in 10.0 mi East 6.9 mph - N/A   Clear
11:35 PM 64.4 °F 55.4 °F 73% 30.14 in 10.0 mi East 5.8 mph - N/A   Clear
11:55 PM 64.4 °F 55.4 °F 73% 30.14 in 10.0 mi ESE 5.8 mph - N/A   Clear
12:15 AM 64.4 °F 55.4 °F 73% 30.13 in 10.0 mi East 9.2 mph - N/A   Clear
12:35 AM 64.4 °F 55.4 °F 73% 30.13 in 10.0 mi East 5.8 mph - N/A   Clear